Location: Newark
(36.1222°N, 100.9183°E)
Time: 10:19:34
(UTC+00:00)

OTV 5 (USA 277) - Visible Passes

Search period start: 22 March 2019 00:00
Search period end: 01 April 2019 00:00
Orbit: 315 x 320 km, 54.5° (Epoch: 14 March)

Date Brightness Start Highest point End Pass type
(mag) Time Alt. Az. Time Alt. Az. Time Alt. Az.
28 Mar ? 22:36:36 10° S 22:38:52 24° SE 22:41:08 10° ENE visible
30 Mar ? 21:32:54 11° SSE 21:34:05 14° SE 21:35:35 10° E visible
31 Mar ? 21:47:38 29° S 21:48:36 45° SE 21:51:13 10° NE visible
